1288396828593,0.522509
1288396888593,0.522623
1288396948593,0.513490
1288397008593,0.516730
1288397068593,0.522350
1288397128593,0.517515
1288397188593,0.513534
1288397248593,0.515456
1288397308593,0.516522
1288397368593,0.520950
1288397428593,0.517188
1288397488593,0.511423
1288397548593,0.516315
1288397608593,0.516751
1288397668593,0.520323
1288397728593,0.515623
1288397788593,0.522968
1288397848593,0.522939
1288397908593,0.517953
1288397968593,0.519764
1288398028593,0.516572
1288398088593,0.517735
1288398148593,0.517713
1288398208593,0.514768
1288398268593,0.518861
1288398328593,0.515724
1288398388593,0.520922
1288398448593,0.519604
1288398508593,0.521295
1288398568593,0.520343
1288398628593,0.517433
1288398688593,0.518989
1288398748593,0.518893
1288398808593,0.521346
1288398868593,0.519992
1288398928593,0.519659
1288398988593,0.513476
1288399048593,0.519948
1288399108593,0.518488
1288399168593,0.516573
1288399228593,0.522079
1288399288593,0.520533
1288399348593,0.519366
1288399408593,0.517649
1288399468593,0.520027
1288399528593,0.519805
1288399588593,0.524764
1288399648593,0.520904
1288399708593,0.515829
1288399768593,0.522441
1288399828593,0.521615
1288399888593,0.519612
1288399948593,0.521041
1288400008593,0.520388
1288400068593,0.525475
1288400128593,0.520905
1288400188593,0.519991
1288400248593,0.523858
1288400308593,0.519719
1288400368593,0.522535
1288400428604,0.522641
1288400488604,0.522131
1288400548604,0.520564
1288400608604,0.515944
1288400668604,0.520637
1288400728604,0.520106
1288400788604,0.527168
1288400848604,0.523466
1288400908604,0.521851
1288400968604,0.521319
1288401028604,0.522172
1288401088604,0.521204
1288401148604,0.526307
1288401208604,0.523487
1288401268604,0.520208
1288401328604,0.520970
1288401388604,0.520133
1288401448604,0.522030
1288401508604,0.522916
1288401568604,0.524405
1288401628604,0.525831
1288401688604,0.525551
1288401748604,0.521107
1288401808604,0.522565
1288401868604,0.517742
1288401928604,0.518357
1288401988604,0.521544
1288402048604,0.518340
1288402108604,0.518053
1288402168604,0.520309
1288402228604,0.522263
1288402288604,0.517042
1288402348604,0.521198
1288402408604,0.520543
1288402468604,0.517933
1288402528604,0.519930
1288402588604,0.519682
1288402648604,0.516453
1288402708604,0.521285
1288402768604,0.520418
1288402828604,0.519004
1288402888604,0.521894
1288402948604,0.520706
1288403008604,0.519954
1288403068604,0.522301
1288403128604,0.516000
1288403188604,0.519549
1288403248604,0.520244
1288403308604,0.521220
1288403368604,0.522133
1288403428604,0.517406
1288403488604,0.519252
1288403548604,0.518542
1288403608604,0.517378
1288403668604,0.522694
1288403728604,0.512242
1288403788604,0.523300
1288403848604,0.515131
1288403908604,0.521119
1288403968604,0.523103
1288404028614,0.524213
1288404088614,0.511555
1288404148614,0.517296
1288404208614,0.520024
1288404268614,0.520931
1288404328614,0.514022
1288404388614,0.518899
1288404448614,0.514168
1288404508614,0.515667
1288404568614,0.523661
1288404628614,0.517587
1288404688614,0.522934
1288404748614,0.513193
1288404808614,0.523180
1288404868614,0.516620
1288404928614,0.517135
1288404988614,0.526074
1288405048614,0.520739
1288405108614,0.516718
1288405168614,0.516551
1288405228614,0.519936
1288405288614,0.521935
1288405348614,0.518449
1288405408614,0.520859
1288405468614,0.520177
1288405528614,0.522237
1288405588614,0.523017
1288405648614,0.512846
1288405708614,0.519066
1288405768614,0.514522
1288405828614,0.518998
1288405888614,0.510008
1288405948614,0.517988
1288406008614,0.518456
1288406068614,0.510483
1288406128614,0.516965
1288406188614,0.515880
1288406248614,0.516611
1288406308614,0.520655
1288406368614,0.517350
1288406428614,0.517817
1288406488614,0.519852
1288406548614,0.521797
1288406608614,0.519147
1288406668614,0.515661
1288406728614,0.520221
1288406788614,0.520098
1288406848614,0.522435
1288406908614,0.519769
1288406968614,0.514707
1288407028614,0.520634
1288407088614,0.520950
1288407148614,0.516287
1288407208614,0.519659
1288407268614,0.518863
1288407328614,0.521391
1288407388614,0.516540
1288407448614,0.513982
1288407508614,0.519120
1288407568614,0.515267
1288407628624,0.517804
1288407688624,0.512353
1288407748624,0.515477
1288407808624,0.520409
1288407868624,0.513952
1288407928624,0.523960
1288407988624,0.512542
1288408048624,0.514543
1288408108624,0.514284
1288408168624,0.517950
1288408228624,0.518875
1288408288624,0.511355
1288408348624,0.518346
1288408408624,0.512060
1288408468624,0.518195
1288408528624,0.522207
1288408588624,0.517217
1288408648624,0.519108
1288408708624,0.518886
1288408768624,0.518608
1288408828624,0.518488
1288408888624,0.518633
1288408948624,0.512934
1288409008624,0.514527
1288409068624,0.526212
1288409128624,0.517611
1288409188624,0.515522
1288409248624,0.515367
1288409308624,0.521785
1288409368624,0.516352
1288409428624,0.516994
1288409488624,0.519894
1288409548624,0.517962
1288409608624,0.520093
1288409668624,0.523429
1288409728624,0.515590
1288409788624,0.513563
1288409848624,0.513781
1288409908624,0.513270
1288409968624,0.519865
1288410028624,0.518413
1288410088624,0.523833
1288410148624,0.520635
1288410208624,0.513198
1288410268624,0.520939
1288410328624,0.521177
1288410388624,0.525832
1288410448624,0.525731
1288410508624,0.524860
1288410568624,0.529460
1288410628624,0.527585
1288410688624,0.526396
1288410748624,0.528248
1288410808624,0.526253
1288410868624,0.527918
1288410928624,0.523045
1288410988624,0.518956
1288411048624,0.526495
1288411108624,0.525755
1288411168624,0.523564
1288411228634,0.524282
1288411288634,0.528374
1288411348634,0.523696
1288411408634,0.522325
1288411468634,0.519666
1288411528634,0.520676
1288411588634,0.523657
1288411648634,0.520824
1288411708634,0.522504
1288411768634,0.514637
1288411828634,0.520497
1288411888634,0.522622
1288411948634,0.524889
1288412008634,0.516452
1288412068634,0.520195
1288412128634,0.526229
1288412188634,0.527144
1288412248634,0.527417
1288412308634,0.533530
1288412368634,0.524818
1288412428634,0.523204
1288412488634,0.519473
1288412548634,0.521233
1288412608634,0.517928
1288412668634,0.517654
1288412728634,0.520637
1288412788634,0.517545
1288412848634,0.516814
1288412908634,0.517129
1288412968634,0.518907
1288413028634,0.521836
1288413088634,0.520396
1288413148634,0.522291
1288413208634,0.522999
1288413268634,0.519639
1288413328634,0.522579
1288413388634,0.516601
1288413448634,0.521823
1288413508634,0.514359
1288413568634,0.515121
1288413628634,0.517441
1288413688634,0.518431
1288413748634,0.518084
1288413808634,0.520818
1288413868634,0.520867
1288413928634,0.525935
1288413988634,0.521821
1288414048634,0.523099
1288414108634,0.521399
1288414168634,0.523455
1288414228634,0.518223
1288414288634,0.523526
1288414348634,0.517347
1288414408634,0.515336
1288414468634,0.521100
1288414528634,0.521182
1288414588634,0.520130
1288414648634,0.525948
1288414708634,0.523678
1288414768634,0.521867
1288414828644,0.519854
1288414888644,0.525277
1288414948644,0.517859
1288415008644,0.516449
1288415068644,0.525754
1288415128644,0.517182
1288415188644,0.521459
1288415248644,0.512680
1288415308644,0.517955
1288415368644,0.517612
1288415428644,0.515633
1288415488644,0.517497
1288415548644,0.519702
1288415608644,0.519147
1288415668644,0.522096
1288415728644,0.515945
1288415788644,0.517014
1288415848644,0.517903
1288415908644,0.522501
1288415968644,0.520464
1288416028644,0.517074
1288416088644,0.520287
1288416148644,0.518030
1288416208644,0.522768
1288416268644,0.520109
1288416328644,0.520846
1288416388644,0.513294
1288416448644,0.517948
1288416508644,0.518137
1288416568644,0.516683
1288416628644,0.521033
1288416688644,0.524554
1288416748644,0.516642
1288416808644,0.520746
1288416868644,0.521939
1288416928644,0.524471
1288416988644,0.520840
1288417048644,0.529367
1288417108644,0.531041
1288417168644,0.534000
1288417228644,0.541927
1288417288644,0.539436
1288417348644,0.538012
1288417408644,0.539429
1288417468644,0.532791
1288417528644,0.524210
1288417588644,0.534490
1288417648644,0.532089
1288417708644,0.527193
1288417768644,0.523781
1288417828644,0.522060
1288417888644,0.519837
1288417948644,0.527474
1288418008644,0.523613
1288418068644,0.522752
1288418128644,0.529158
1288418188644,0.516622
1288418248644,0.518475
1288418308644,0.527805
1288418368644,0.521086
1288418428654,0.522303
1288418488654,0.523576
1288418548654,0.524022
1288418608654,0.519837
1288418668654,0.517525
1288418728654,0.524955
1288418788654,0.517830
1288418848654,0.518039
1288418908654,0.515382
1288418968654,0.520907
1288419028654,0.525937
1288419088654,0.518941
1288419148654,0.519767
1288419208654,0.520834
1288419268654,0.521698
1288419328654,0.520306
1288419388654,0.521147
1288419448654,0.523807
1288419508654,0.521360
1288419568654,0.511950
1288419628654,0.521543
1288419688654,0.518072
1288419748654,0.522155
1288419808654,0.523094
1288419868654,0.523181
1288419928654,0.528399
1288419988654,0.523038
1288420048654,0.525423
1288420108654,0.522910
1288420168654,0.519711
1288420228654,0.520102
1288420288654,0.522323
1288420348654,0.521646
1288420408654,0.518752
1288420468654,0.516078
1288420528654,0.522301
1288420588654,0.524432
1288420648654,0.525603
1288420708654,0.517348
1288420768654,0.517845
1288420828654,0.517222
1288420888654,0.520310
1288420948654,0.524024
1288421008654,0.516821
1288421068654,0.521327
1288421128654,0.522563
1288421188654,0.527443
1288421248654,0.526598
1288421308654,0.517238
1288421368654,0.519892
1288421428654,0.523311
1288421488654,0.524269
1288421548654,0.523872
1288421608654,0.525233
1288421668654,0.524597
1288421728654,0.520935
1288421788654,0.523136
1288421848654,0.519445
1288421908654,0.517233
1288421968654,0.520435
1288422028665,0.522243
1288422088665,0.521938
1288422148665,0.518654
1288422208665,0.515087
1288422268665,0.524118
1288422328665,0.526582
1288422388665,0.526936
1288422448665,0.521566
1288422508665,0.523844
1288422568665,0.524271
1288422628665,0.526225
1288422688665,0.522615
1288422748665,0.521154
1288422808665,0.520779
1288422868665,0.527253
1288422928665,0.526349
1288422988665,0.532142
1288423048665,0.527881
1288423108665,0.529801
1288423168665,0.525871
1288423228665,0.522221
1288423288665,0.529447
1288423348665,0.524709
1288423408665,0.530719
1288423468665,0.525147
1288423528665,0.530732
1288423588665,0.533389
1288423648665,0.525114
1288423708665,0.528544
1288423768665,0.536300
1288423828665,0.531215
1288423888665,0.525545
1288423948665,0.526289
1288424008665,0.520464
1288424068665,0.522109
1288424128665,0.525957
1288424188665,0.524620
1288424248665,0.524375
1288424308665,0.529396
1288424368665,0.528743
1288424428665,0.521031
1288424488665,0.523555
1288424548665,0.526144
1288424608665,0.524556
1288424668665,0.520395
1288424728665,0.524342
1288424788665,0.527940
1288424848665,0.518422
1288424908665,0.530925
1288424968665,0.521861
1288425028665,0.525110
1288425088665,0.528423
1288425148665,0.524286
1288425208665,0.522947
1288425268665,0.519958
1288425328665,0.525728
1288425388665,0.520625
1288425448665,0.526837
1288425508665,0.523551
1288425568665,0.518036
1288425628675,0.520523
1288425688675,0.525309
1288425748675,0.520254
1288425808675,0.522437
1288425868675,0.519852
1288425928675,0.529737
1288425988675,0.521893
1288426048675,0.525888
1288426108675,0.525441
1288426168675,0.521025
1288426228675,0.519590
1288426288675,0.523210
1288426348675,0.523546
1288426408675,0.520415
1288426468675,0.518284
1288426528675,0.522629
1288426588675,0.528278
1288426648675,0.525049
1288426708675,0.518635
1288426768675,0.522560
1288426828675,0.521217
1288426888675,0.517815
1288426948675,0.519073
1288427008675,0.530599
1288427068675,0.520216
1288427128675,0.519112
1288427188675,0.522098
1288427248675,0.524145
1288427308675,0.526063
1288427368675,0.518490
1288427428675,0.524217
1288427488675,0.527309
1288427548675,0.519649
1288427608675,0.527275
1288427668675,0.522619
1288427728675,0.524149
1288427788675,0.527651
1288427848675,0.524825
1288427908675,0.521321
1288427968675,0.520804
1288428028675,0.522026
1288428088675,0.520703
1288428148675,0.524188
1288428208675,0.524844
1288428268675,0.525473
1288428328675,0.524687
1288428388675,0.524368
1288428448675,0.524281
1288428508675,0.527475
1288428568675,0.524279
1288428628675,0.525912
1288428688675,0.523391
1288428748675,0.527593
1288428808675,0.524231
1288428868675,0.528912
1288428928675,0.526910
1288428988675,0.525437
1288429048675,0.525152
1288429108675,0.523518
1288429168675,0.519375
1288429228686,0.519759
1288429288686,0.526499
1288429348686,0.518552
1288429408686,0.529514
1288429468686,0.525040
1288429528686,0.528384
1288429588686,0.527179
1288429648686,0.526337
1288429708686,0.524981
1288429768686,0.518726
1288429828686,0.522533
1288429888686,0.525773
1288429948686,0.524950
1288430008686,0.524138
1288430068686,0.526051
1288430128686,0.523420
1288430188686,0.520197
1288430248686,0.520139
1288430308686,0.519273
1288430368686,0.524870
1288430428686,0.528761
1288430488686,0.521049
1288430548686,0.523266
1288430608686,0.514688
1288430668686,0.522677
1288430728686,0.515513
1288430788686,0.515420
1288430848686,0.517374
1288430908686,0.522413
1288430968686,0.515272
1288431028686,0.519644
1288431088686,0.525244
1288431148686,0.521923
1288431208686,0.519336
1288431268686,0.527219
1288431328686,0.521596
1288431388686,0.518607
1288431448686,0.518361
1288431508686,0.525388
1288431568686,0.522752
1288431628686,0.515441
1288431688686,0.520306
1288431748686,0.519019
1288431808686,0.522180
1288431868686,0.520843
1288431928686,0.518019
1288431988686,0.523817
1288432048686,0.523024
1288432108686,0.515154
1288432168686,0.519453
1288432228686,0.516781
1288432288686,0.512411
1288432348686,0.519113
1288432408686,0.522333
1288432468686,0.525246
1288432528686,0.517842
1288432588686,0.516340
1288432648686,0.524116
1288432708686,0.520510
1288432768686,0.519211
1288432828697,0.523551
1288432888697,0.520643
1288432948697,0.510757
1288433008697,0.519198
1288433068697,0.520988
1288433128697,0.516491
1288433188697,0.523620
1288433248697,0.524356
1288433308697,0.519809
1288433368697,0.527338
1288433428697,0.515386
1288433488697,0.524758
1288433548697,0.520790
1288433608697,0.520453
1288433668697,0.516091
1288433728697,0.523587
1288433788697,0.523123
1288433848697,0.520535
1288433908697,0.521141
1288433968697,0.521055
1288434028697,0.521038
1288434088697,0.518476
1288434148697,0.518216
1288434208697,0.516701
1288434268697,0.522138
1288434328697,0.519670
1288434388697,0.519987
1288434448697,0.518018
1288434508697,0.526893
1288434568697,0.517002
1288434628697,0.516396
1288434688697,0.519707
1288434748697,0.514696
1288434808697,0.522241
1288434868697,0.518769
1288434928697,0.521990
1288434988697,0.526661
1288435048697,0.524070
1288435108697,0.526058
1288435168697,0.521319
1288435228697,0.517091
1288435288697,0.524881
1288435348697,0.522381
1288435408697,0.526317
1288435468697,0.527534
1288435528697,0.516837
1288435588697,0.524108
1288435648697,0.526642
1288435708697,0.520703
1288435768697,0.516893
1288435828697,0.521152
1288435888697,0.519076
1288435948697,0.517903
1288436008697,0.521400
1288436068697,0.526497
1288436128697,0.521420
1288436188697,0.516100
1288436248697,0.519397
1288436308697,0.516996
1288436368697,0.518815
1288436428708,0.525712
1288436488708,0.520110
1288436548708,0.516113
1288436608708,0.524448
1288436668708,0.519797
1288436728708,0.523855
1288436788708,0.520635
1288436848708,0.524657
1288436908708,0.520078
1288436968708,0.518651
1288437028708,0.519331
1288437088708,0.519757
1288437148708,0.515909
1288437208708,0.524689
1288437268708,0.527720
1288437328708,0.519258
1288437388708,0.515930
1288437448708,0.521533
1288437508708,0.520173
1288437568708,0.527763
1288437628708,0.524128
1288437688708,0.516446
1288437748708,0.518721
1288437808708,0.523319
1288437868708,0.521415
1288437928708,0.516515
1288437988708,0.514891
1288438048708,0.528416
1288438108708,0.519496
1288438168708,0.521388
1288438228708,0.518244
1288438288708,0.523152
1288438348708,0.524419
1288438408708,0.521417
1288438468708,0.520792
1288438528708,0.522954
1288438588708,0.515432
1288438648708,0.519677
1288438708708,0.521306
1288438768708,0.519375
1288438828708,0.516421
1288438888708,0.518362
1288438948708,0.517780
1288439008708,0.521863
1288439068708,0.526094
1288439128708,0.522396
1288439188708,0.517716
1288439248708,0.519835
1288439308708,0.521499
1288439368708,0.519840
1288439428708,0.520916
1288439488708,0.518689
1288439548708,0.516463
1288439608708,0.522927
1288439668708,0.519231
1288439728708,0.518742
1288439788708,0.522253
1288439848708,0.528997
1288439908708,0.522577
1288439968708,0.518048
1288440028719,0.517990
1288440088719,0.517445
1288440148719,0.522954
1288440208719,0.513593
1288440268719,0.521284
1288440328719,0.520154
1288440388719,0.521720
1288440448719,0.522811
1288440508719,0.519679
1288440568719,0.523058
1288440628719,0.519084
1288440688719,0.519191
1288440748719,0.522857
1288440808719,0.524165
1288440868719,0.520916
1288440928719,0.522101
1288440988719,0.520409
1288441048719,0.520240
1288441108719,0.524019
1288441168719,0.517441
1288441228719,0.522196
1288441288719,0.519312
1288441348719,0.528056
1288441408719,0.516214
1288441468719,0.521762
1288441528719,0.522482
1288441588719,0.518061
1288441648719,0.523219
1288441708719,0.517770
1288441768719,0.529272
1288441828719,0.521205
1288441888719,0.522279
1288441948719,0.523652
1288442008719,0.518949
1288442068719,0.524406
1288442128719,0.535332
1288442188719,0.528165
1288442248719,0.526165
1288442308719,0.522304
1288442368719,0.528954
1288442428719,0.530404
1288442488719,0.530963
1288442548719,0.526758
1288442608719,0.530672
1288442668719,0.528201
1288442728719,0.535937
1288442788719,0.530633
1288442848719,0.532997
1288442908719,0.535348
1288442968719,0.535153
1288443028719,0.528578
1288443088719,0.529580
1288443148719,0.532872
1288443208719,0.528274
1288443268719,0.525541
1288443328719,0.530915
1288443388719,0.526449
1288443448719,0.521427
1288443508719,0.529115
1288443568719,0.528655
1288443628731,0.530271
1288443688731,0.529148
1288443748731,0.527577
1288443808731,0.528575
1288443868731,0.522795
1288443928731,0.524288
1288443988731,0.519509
1288444048731,0.521538
1288444108731,0.523583
1288444168731,0.526430
1288444228731,0.526915
1288444288731,0.528733
1288444348731,0.531550
1288444408731,0.524899
1288444468731,0.522430
1288444528731,0.528709
1288444588731,0.527110
1288444648731,0.523852
1288444708731,0.526546
1288444768731,0.528489
1288444828731,0.524181
1288444888731,0.523924
1288444948731,0.522937
1288445008731,0.523302
1288445068731,0.524431
1288445128731,0.521159
1288445188731,0.524633
1288445248731,0.515245
1288445308731,0.520330
1288445368731,0.526613
1288445428731,0.524126
1288445488731,0.526953
1288445548731,0.527785
1288445608731,0.516300
1288445668731,0.526629
1288445728731,0.528800
1288445788731,0.523595
1288445848731,0.529170
1288445908731,0.523891
1288445968731,0.537333
1288446028731,0.526481
1288446088731,0.529199
1288446148731,0.530669
1288446208731,0.525290
1288446268731,0.526844
1288446328731,0.530051
1288446388731,0.531409
1288446448731,0.524453
1288446508731,0.531723
1288446568731,0.526312
1288446628731,0.528974
1288446688731,0.529926
1288446748731,0.528762
1288446808731,0.528554
1288446868731,0.527062
1288446928731,0.529341
1288446988731,0.524397
1288447048731,0.529295
1288447108731,0.528977
1288447168731,0.526273
1288447228742,0.530758
1288447288742,0.527862
1288447348742,0.525338
1288447408742,0.528213
1288447468742,0.524443
1288447528742,0.528228
1288447588742,0.527409
1288447648742,0.523481
1288447708742,0.528250
1288447768742,0.532050
1288447828742,0.533804
1288447888742,0.526476
1288447948742,0.532493
1288448008742,0.526496
1288448068742,0.529148
1288448128742,0.524398
1288448188742,0.525476
1288448248742,0.530428
1288448308742,0.528338
1288448368742,0.523558
1288448428742,0.530189
1288448488742,0.527381
1288448548742,0.529936
1288448608742,0.529861
1288448668742,0.533976
1288448728742,0.531588
1288448788742,0.527376
1288448848742,0.525617
1288448908742,0.529508
1288448968742,0.530178
1288449028742,0.530402
1288449088742,0.528261
1288449148742,0.531593
1288449208742,0.528423
1288449268742,0.525327
1288449328742,0.526210
1288449388742,0.529610
1288449448742,0.525400
1288449508742,0.524651
1288449568742,0.522097
1288449628742,0.530762
1288449688742,0.529064
1288449748742,0.533278
1288449808742,0.527723
1288449868742,0.527484
1288449928742,0.536391
1288449988742,0.528630
1288450048742,0.526421
1288450108742,0.529893
1288450168742,0.529894
1288450228742,0.524128
1288450288742,0.533392
1288450348742,0.545296
1288450408742,0.530464
1288450468742,0.525664
1288450528742,0.532030
1288450588742,0.522648
1288450648742,0.525728
1288450708742,0.531955
1288450768742,0.523409
1288450828754,0.523366
1288450888754,0.531174
1288450948754,0.533779
1288451008754,0.526028
1288451068754,0.526255
1288451128754,0.527175
1288451188754,0.531742
1288451248754,0.521174
1288451308754,0.532044
1288451368754,0.529884
1288451428754,0.532974
1288451488754,0.527366
1288451548754,0.525556
1288451608754,0.525321
1288451668754,0.527378
1288451728754,0.522647
1288451788754,0.528665
1288451848754,0.526014
1288451908754,0.525256
1288451968754,0.528171
1288452028754,0.525959
1288452088754,0.528325
1288452148754,0.533510
1288452208754,0.525839
1288452268754,0.535049
1288452328754,0.533496
1288452388754,0.527825
1288452448754,0.531410
1288452508754,0.529221
1288452568754,0.528137
1288452628754,0.526420
1288452688754,0.525171
1288452748754,0.525746
1288452808754,0.531532
1288452868754,0.526616
1288452928754,0.527764
1288452988754,0.533504
1288453048754,0.527224
1288453108754,0.531748
1288453168754,0.528722
1288453228754,0.530259
1288453288754,0.526420
1288453348754,0.532078
1288453408754,0.535072
1288453468754,0.529704
1288453528754,0.529694
1288453588754,0.530181
1288453648754,0.526027
1288453708754,0.522206
1288453768754,0.528257
1288453828754,0.530341
1288453888754,0.524672
1288453948754,0.528734
1288454008754,0.525157
1288454068754,0.527543
1288454128754,0.535161
1288454188754,0.531164
1288454248754,0.532944
1288454308754,0.524376
1288454368754,0.531090
1288454428766,0.525983
1288454488766,0.534595
1288454548766,0.533024
1288454608766,0.530247
1288454668766,0.529338
1288454728766,0.528908
1288454788766,0.528287
1288454848766,0.528111
1288454908766,0.532601
1288454968766,0.527898
1288455028766,0.531700
1288455088766,0.526230
1288455148766,0.535503
1288455208766,0.525486
1288455268766,0.522695
1288455328766,0.528833
1288455388766,0.533582
1288455448766,0.531137
1288455508766,0.527206
1288455568766,0.535811
1288455628766,0.532550
1288455688766,0.531285
1288455748766,0.529438
1288455808766,0.533098
1288455868766,0.533575
1288455928766,0.527491
1288455988766,0.529036
1288456048766,0.531548
1288456108766,0.535242
1288456168766,0.528345
1288456228766,0.532859
1288456288766,0.525291
1288456348766,0.526544
1288456408766,0.524309
1288456468766,0.527333
1288456528766,0.529370
1288456588766,0.523979
1288456648766,0.531274
1288456708766,0.529023
1288456768766,0.524468
1288456828766,0.525519
1288456888766,0.529966
1288456948766,0.525641
1288457008766,0.529273
1288457068766,0.530250
1288457128766,0.530996
1288457188766,0.525420
1288457248766,0.528679
1288457308766,0.528579
1288457368766,0.528090
1288457428766,0.531969
1288457488766,0.536819
1288457548766,0.553145
1288457608766,0.535495
1288457668766,0.531084
1288457728766,0.536072
1288457788766,0.531975
1288457848766,0.531362
1288457908766,0.533285
1288457968766,0.530796
1288458028778,0.530104
1288458088778,0.525475
1288458148778,0.527758
1288458208778,0.527663
1288458268778,0.533130
1288458328778,0.532263
1288458388778,0.526495
1288458448778,0.529188
1288458508778,0.530986
1288458568778,0.532364
1288458628778,0.534034
1288458688778,0.530916
1288458748778,0.533099
1288458808778,0.526759
1288458868778,0.531637
1288458928778,0.532796
1288458988778,0.532591
1288459048778,0.532226
1288459108778,0.529450
1288459168778,0.531662
1288459228778,0.534382
1288459288778,0.529931
1288459348778,0.534342